Weather History for Tallahassee, FL

Change the Weather History Date:

Thursday, November 22, 2012

  Actual Average Record
Temperature  
Mean Temperature 56 °F 58 °F  
Max Temperature 74 °F 71 °F 84 °F (1997)
Min Temperature 38 °F 46 °F 23 °F (2000)
Degree Days  
Heating Degree Days 9    
Month to date heating degree days 131  
Since 1 July heating degree days 173  
Cooling Degree Days 0    
Month to date cooling degree days 15  
Year to date cooling degree days 2958  
Growing Degree Days 5 (Base 50)    
Moisture  
Dew Point 37 °F    
Average Humidity 54    
Maximum Humidity 85    
Minimum Humidity 23    
Precipitation  
Precipitation 0.00 in 0.12 in 1.18 in (1965)
Month to date precipitation 0.24 2.49  
Year to date precipitation 55.94 54.32  
Sea Level Pressure  
Sea Level Pressure 30.19 in    
Wind  
Wind Speed 2 mph (NE)    
Max Wind Speed 10 mph    
Max Gust Speed 22 mph    
Visibility 10 miles    
Events Fog    
T = Trace of Precipitation, MM = Missing Value Source: NWS Daily Summary

Daily Weather History Graph

Daily Weather History Graph

Search for Another Location

Airport:

Trip Planner

Search our weather history database for the weather conditions in past years. The results will help you decide how hot, cold, wet, or windy it might be!

Date:

Astronomy

Nov. 22, 2012 Rise Set
Actual Time 7:09 AM EST 5:37 PM EST
Civil Twilight 6:43 AM EST 6:03 PM EST
Nautical Twilight 6:14 AM EST 6:32 PM EST
Astronomical Twilight 5:45 AM EST 7:01 PM EST
Moon 2:04 PM EST (11/22) 1:49 AM EST (11/22)
Length of Visible Light 11h 19m
Length of Day
10h 28m
Waxing Gibbous, 71% of the Moon is Illuminated
Nov 22
Waxing Gibbous
Nov 28
Full
Dec 6
Last Quarter
Dec 13
New
Dec 20
First Quarter

Hourly Weather History & Observations

Time (EST) Temp. Dew Point Humidity Pressure Visibility Wind Dir Wind Speed Gust Speed Precip Events Conditions
12:53 AM 44.1 °F 39.9 °F 85% 30.15 in 10.0 mi Calm Calm - N/A   Clear
1:53 AM 43.0 °F 37.9 °F 82% 30.15 in 10.0 mi Calm Calm - N/A   Clear
2:53 AM 42.1 °F 37.9 °F 85% 30.15 in 10.0 mi Calm Calm - N/A   Clear
3:53 AM 42.1 °F 37.9 °F 85% 30.16 in 10.0 mi Calm Calm - N/A   Clear
4:53 AM 39.9 °F 36.0 °F 86% 30.17 in 10.0 mi North - - N/A   Clear
5:53 AM 39.0 °F 35.1 °F 86% 30.17 in 10.0 mi Calm Calm - N/A   Clear
6:53 AM 37.9 °F 34.0 °F 86% 30.19 in 10.0 mi Calm Calm - N/A Fog Patches of Fog
7:53 AM 41.0 °F 36.0 °F 82% 30.21 in 10.0 mi Calm Calm - N/A   Clear
8:53 AM 53.1 °F 43.0 °F 69% 30.23 in 10.0 mi Calm Calm - N/A   Clear
9:53 AM 62.1 °F 41.0 °F 46% 30.25 in 10.0 mi East 6.9 mph - N/A   Clear
10:53 AM 66.0 °F 37.0 °F 34% 30.25 in 10.0 mi East 5.8 mph - N/A   Clear
11:53 AM 69.1 °F 37.9 °F 32% 30.23 in 10.0 mi East 4.6 mph - N/A   Clear
12:53 PM 70.0 °F 32.0 °F 25% 30.20 in 10.0 mi Calm Calm - N/A   Clear
1:53 PM 73.0 °F 33.1 °F 23% 30.17 in 10.0 mi Variable 5.8 mph - N/A   Clear
2:53 PM 73.9 °F 35.1 °F 24% 30.16 in 10.0 mi North 6.9 mph - N/A   Clear
3:53 PM 73.9 °F 35.1 °F 24% 30.16 in 10.0 mi North 5.8 mph - N/A   Clear
4:53 PM 72.0 °F 35.1 °F 26% 30.17 in 10.0 mi North 4.6 mph - N/A   Clear
5:53 PM 62.1 °F 41.0 °F 46% 30.17 in 10.0 mi Calm Calm - N/A   Clear
6:53 PM 55.0 °F 39.9 °F 57% 30.19 in 10.0 mi Calm Calm - N/A   Clear
7:53 PM 51.1 °F 39.0 °F 63% 30.20 in 10.0 mi Calm Calm - N/A   Clear
8:53 PM 46.9 °F 37.9 °F 71% 30.21 in 10.0 mi Calm Calm - N/A   Clear
9:53 PM 45.0 °F 37.0 °F 74% 30.21 in 10.0 mi Calm Calm - N/A   Clear
10:53 PM 43.0 °F 37.0 °F 80% 30.22 in 10.0 mi Calm Calm - N/A   Clear
11:53 PM 41.0 °F 36.0 °F 82% 30.21 in 10.0 mi Calm Calm - N/A   Clear